Location: Asheville, NC
(35.6000°N, 82.5500°W)
Time: 13:50:14
(UTC-04:00)

Tiangong 1 - Pass Details

Date: 14 October 2017
Orbit: 293 x 320 km, 42.8° (Epoch: 21 October)

Event Time Altitude Azimuth Distance (km) Brightness Sun altitude
Rises 20:03:45 0° 300° (WNW) 2,037 5.8 -14.6°
Reaches altitude 10° 20:05:47 10° 307° (NW) 1,202 4.4 -15.0°
Maximum altitude 20:08:23 43° 21° (NNE) 446 1.2 -15.6°
Enters shadow 20:08:36 42° 38° (NE) 456 1.1 -15.6°
